Abbeville, LA

3:08 PM CDT on September 19, 2017 (GMT -0500)
Abbeville

Weather History for KIYA - February, 2013

Change the Weather History Date:

Monday, February 18, 2013

  Actual Average (KARA) Record (KARA)
Temperature  
Mean Temperature 62 °F -  
Max Temperature 69 °F 64 °F 83 °F (1956)
Min Temperature 54 °F 46 °F 30 °F (1969)
Degree Days  
Heating Degree Days 4    
Growing Degree Days 12 (Base 50)    
Moisture  
Dew Point 59 °F    
Average Humidity 88    
Maximum Humidity 97    
Minimum Humidity 71    
Precipitation  
Precipitation 0.00 in - - ()
Sea Level Pressure  
Sea Level Pressure 30.05 in    
Wind  
Wind Speed 12 mph (SE)    
Max Wind Speed 24 mph    
Max Gust Speed 40 mph    
Visibility 10 miles    
Events Rain , Thunderstorm    
Averages and records for this station are not official NWS values.
T = Trace of Precipitation, MM = Missing Value Source: NWS Daily Summary

Daily Weather History Graph

Daily Weather History Graph

Search for Another Location

Airport or City:

Trip Planner

Search our weather history database for the weather conditions in past years. The results will help you decide how hot, cold, wet, or windy it might be!

Date:

Astronomy

Feb. 18, 2013 Rise Set
Actual Time 6:45 AM CST 5:59 PM CST
Civil Twilight 6:20 AM CST 6:24 PM CST
Nautical Twilight 5:52 AM CST 6:51 PM CST
Astronomical Twilight 5:25 AM CST 7:19 PM CST
Moon 11:58 AM CST (2/18) 1:13 AM CST (2/18)
Length of Visible Light 12h 03m
Length of Day
11h 14m
First Quarter, 58% of the Moon is Illuminated
Feb 18
First Quarter
Feb 25
Full
Mar 4
Last Quarter
Mar 11
New
Mar 19
First Quarter

Hourly Weather History & Observations

Time (CST) Temp. Dew Point Humidity Pressure Visibility Wind Dir Wind Speed Gust Speed Precip Events Conditions
12:15 AM 54.5 °F 50.0 °F 85% 30.19 in 10.0 mi SE 8.1 mph - N/A   Clear
12:35 AM 54.5 °F 50.2 °F 85% 30.18 in 10.0 mi SE 8.1 mph - N/A   Clear
12:55 AM 54.9 °F 51.1 °F 87% 30.18 in 10.0 mi SE 9.2 mph - N/A   Clear
1:15 AM 54.9 °F 50.9 °F 86% 30.17 in 10.0 mi SE 6.9 mph - N/A   Clear
1:35 AM 55.4 °F 50.9 °F 85% 30.16 in 10.0 mi SE 8.1 mph - N/A   Clear
1:55 AM 55.4 °F 51.4 °F 87% 30.16 in 10.0 mi SE 8.1 mph - N/A   Clear
2:15 AM 55.6 °F 51.8 °F 87% 30.15 in 10.0 mi SE 9.2 mph - N/A   Scattered Clouds
2:35 AM 55.6 °F 51.6 °F 87% 30.14 in 10.0 mi SE 8.1 mph - N/A   Clear
2:55 AM 55.9 °F 51.8 °F 86% 30.13 in 10.0 mi SE 9.2 mph - N/A   Clear
3:15 AM 55.8 °F 52.0 °F 87% 30.12 in 10.0 mi SE 9.2 mph - N/A   Clear
3:35 AM 55.6 °F 52.3 °F 89% 30.12 in 10.0 mi ESE 9.2 mph - N/A   Clear
3:55 AM 55.6 °F 52.7 °F 90% 30.11 in 10.0 mi ESE 9.2 mph - N/A   Clear
4:15 AM 55.8 °F 52.9 °F 90% 30.11 in 10.0 mi SE 9.2 mph - N/A   Scattered Clouds
4:35 AM 55.6 °F 53.2 °F 92% 30.11 in 10.0 mi ESE 9.2 mph - N/A   Scattered Clouds
4:55 AM 55.6 °F 53.4 °F 92% 30.11 in 10.0 mi ESE 9.2 mph - N/A   Scattered Clouds
5:15 AM 55.8 °F 53.6 °F 92% 30.11 in 10.0 mi SE 8.1 mph - N/A   Mostly Cloudy
5:35 AM 56.3 °F 53.8 °F 91% 30.11 in 10.0 mi ESE 8.1 mph - N/A   Overcast
5:55 AM 56.5 °F 54.0 °F 91% 30.11 in 10.0 mi SE 6.9 mph - N/A   Overcast
6:15 AM 56.3 °F 54.1 °F 92% 30.11 in 10.0 mi SE 8.1 mph - N/A   Mostly Cloudy
6:35 AM 57.0 °F 54.7 °F 92% 30.11 in 10.0 mi ESE 8.1 mph - N/A   Overcast
6:55 AM 57.7 °F 55.2 °F 91% 30.11 in 10.0 mi SE 10.4 mph - N/A   Overcast
7:35 AM 59.0 °F 55.9 °F 90% 30.10 in 10.0 mi SE 12.7 mph 16.1 mph N/A   Overcast
8:15 AM 61.9 °F 56.7 °F 83% 30.11 in 10.0 mi SE 11.5 mph 18.4 mph N/A   Overcast
8:55 AM 62.6 °F 56.7 °F 81% 30.12 in 10.0 mi SE 9.2 mph - N/A   Overcast
9:15 AM 63.7 °F 57.4 °F 80% 30.12 in 10.0 mi SE 11.5 mph - N/A   Overcast
9:35 AM 64.8 °F 58.1 °F 79% 30.12 in 10.0 mi SE 11.5 mph 18.4 mph N/A   Overcast
9:55 AM 64.8 °F 58.1 °F 79% 30.11 in 10.0 mi SE 12.7 mph - N/A   Overcast
10:15 AM 66.2 °F 58.3 °F 76% 30.11 in 10.0 mi SE 16.1 mph 20.7 mph N/A   Overcast
10:35 AM 66.7 °F 58.8 °F 76% 30.11 in 10.0 mi SSE 15.0 mph 23.0 mph N/A   Overcast
10:55 AM 66.6 °F 58.8 °F 76% 30.11 in 10.0 mi SSE 15.0 mph 24.2 mph N/A   Overcast
11:15 AM 65.7 °F 59.4 °F 80% 30.10 in 10.0 mi SSE 17.3 mph 25.3 mph N/A Rain Rain
11:35 AM 65.1 °F 61.0 °F 86% 30.10 in 10.0 mi SE 13.8 mph 19.6 mph N/A   Overcast
11:55 AM 67.1 °F 60.8 °F 80% 30.08 in 10.0 mi SE 12.7 mph 23.0 mph N/A   Overcast
12:15 PM 67.8 °F 60.1 °F 76% 30.07 in 10.0 mi SE 15.0 mph 24.2 mph N/A   Overcast
12:55 PM 69.4 °F 59.5 °F 71% 30.05 in 10.0 mi SE 20.7 mph 28.8 mph N/A   Overcast
1:15 PM 68.0 °F 60.8 °F 78% 30.03 in 10.0 mi SE 18.4 mph 32.2 mph N/A   Overcast
1:35 PM 66.4 °F 61.3 °F 84% 30.02 in 10.0 mi SE 19.6 mph 31.1 mph N/A   Overcast
1:55 PM 66.2 °F 62.1 °F 86% 30.01 in 10.0 mi SE 24.2 mph 31.1 mph N/A   Overcast
2:15 PM 65.7 °F 62.1 °F 88% 30.01 in 10.0 mi SE 19.6 mph 26.5 mph N/A   Overcast
2:35 PM 65.8 °F 61.0 °F 84% 30.00 in 10.0 mi SE 20.7 mph 29.9 mph N/A   Overcast
2:55 PM 66.4 °F 61.0 °F 83% 29.99 in 10.0 mi SE 18.4 mph 26.5 mph N/A   Overcast
3:15 PM 66.9 °F 61.0 °F 81% 29.98 in 10.0 mi SE 18.4 mph 31.1 mph N/A   Overcast
3:35 PM 66.6 °F 61.2 °F 83% 29.97 in 10.0 mi SE 20.7 mph 28.8 mph N/A   Overcast
3:55 PM 67.8 °F 61.9 °F 81% 29.97 in 10.0 mi SSE 23.0 mph 27.6 mph N/A   Overcast
4:15 PM 67.3 °F 61.7 °F 82% 29.96 in 10.0 mi SE 19.6 mph 26.5 mph N/A   Overcast
4:35 PM 67.3 °F 61.9 °F 83% 29.96 in 10.0 mi SSE 18.4 mph 27.6 mph N/A   Overcast
4:55 PM 66.2 °F 62.1 °F 86% 29.96 in 10.0 mi SSE 13.8 mph 27.6 mph N/A   Overcast
5:15 PM 65.5 °F 62.1 °F 89% 29.96 in 10.0 mi SE 13.8 mph - N/A   Overcast
5:35 PM 65.3 °F 62.6 °F 91% 29.96 in 10.0 mi SSE 13.8 mph 23.0 mph N/A   Overcast
5:55 PM 65.3 °F 62.8 °F 92% 29.96 in 10.0 mi SSE 13.8 mph 21.9 mph N/A   Overcast
6:15 PM 65.3 °F 63.1 °F 93% 29.96 in 10.0 mi SSE 15.0 mph 20.7 mph N/A   Overcast
6:35 PM 65.5 °F 63.7 °F 94% 29.95 in 10.0 mi SSE 15.0 mph 28.8 mph N/A   Overcast
6:55 PM 65.3 °F 64.0 °F 96% 29.96 in 10.0 mi SSE 13.8 mph 19.6 mph N/A   Mostly Cloudy
7:15 PM 65.8 °F 64.4 °F 95% 29.95 in 10.0 mi SSE 13.8 mph 21.9 mph N/A   Overcast
7:35 PM 66.2 °F 64.8 °F 95% 29.95 in 10.0 mi SSE 15.0 mph 21.9 mph N/A   Overcast
7:55 PM 66.6 °F 64.8 °F 94% 29.95 in 10.0 mi SSE 17.3 mph 24.2 mph N/A   Mostly Cloudy
8:15 PM 66.6 °F 64.6 °F 93% 29.95 in 10.0 mi South 16.1 mph 23.0 mph N/A   Overcast
8:35 PM 66.6 °F 65.1 °F 95% 29.95 in 10.0 mi South 18.4 mph 24.2 mph N/A   Overcast
8:55 PM 67.1 °F 66.0 °F 96% 29.95 in 10.0 mi South 18.4 mph 26.5 mph N/A   Overcast
9:15 PM 67.1 °F 66.2 °F 97% 29.96 in 10.0 mi South 17.3 mph 23.0 mph N/A   Overcast
9:35 PM 67.5 °F 66.2 °F 96% 29.97 in 10.0 mi South 16.1 mph 26.5 mph N/A   Overcast
9:55 PM 67.8 °F 66.4 °F 95% 29.96 in 10.0 mi South 13.8 mph 23.0 mph N/A   Overcast
10:15 PM 67.6 °F 66.4 °F 96% 29.96 in 10.0 mi South 16.1 mph 26.5 mph N/A   Overcast
10:55 PM 68.2 °F 66.7 °F 95% 29.97 in 10.0 mi South 16.1 mph 24.2 mph N/A   Overcast
11:15 PM 68.4 °F 66.7 °F 95% 29.99 in 10.0 mi South 18.4 mph 24.2 mph N/A Thunderstorm Thunderstorm
11:35 PM 68.4 °F 66.7 °F 95% 29.98 in 10.0 mi South 16.1 mph 25.3 mph N/A Thunderstorm Thunderstorm
11:55 PM 65.8 °F 64.4 °F 95% 30.00 in 4.0 mi SW 19.6 mph 40.3 mph N/A Rain , Thunderstorm Light Thunderstorms and Rain